CET,Max TemperatureF,Mean TemperatureF,Min TemperatureF,Max Dew PointF,MeanDew PointF,Min DewpointF,Max Humidity, Mean Humidity, Min Humidity, Max Sea Level PressureIn, Mean Sea Level PressureIn, Min Sea Level PressureIn, Max VisibilityMiles, Mean VisibilityMiles, Min VisibilityMiles, Max Wind SpeedMPH, Mean Wind SpeedMPH, Max Gust SpeedMPH,PrecipitationIn, CloudCover, Events, WindDirDegrees
2012-12-1,36,31,24,27,26,23,93,72,55,30.10,29.91,29.77,19,7,6,12,8,,0.00,6,,29
2012-12-2,34,28,23,32,27,23,100,88,74,30.19,30.04,29.98,16,5,1,8,3,,0.00,5,Snow,249
2012-12-3,37,28,20,37,27,19,100,92,64,30.27,30.12,29.89,12,4,1,12,4,,0.24,7,Fog-Rain-Snow,239
2012-12-4,43,38,33,41,35,28,100,81,49,29.94,29.79,29.71,7,6,2,20,11,25,0.12,6,Rain-Snow,225
2012-12-5,38,35,32,34,32,31,100,89,71,29.81,29.74,29.68,12,5,1,14,7,,0.08,6,Rain-Snow,223
2012-12-6,36,31,26,32,25,20,100,72,38,30.14,30.01,29.77,6,6,4,9,3,,0.08,4,Rain-Snow,293
2012-12-7,35,30,26,32,28,22,100,88,64,30.09,29.79,29.62,12,5,0,20,6,29,0.16,7,Rain-Snow,229
2012-12-8,36,32,28,32,28,22,100,82,60,30.37,30.01,29.68,19,6,1,16,8,,0.04,5,Rain-Snow,33
2012-12-9,33,30,27,27,23,18,80,68,47,30.41,30.29,30.15,19,6,6,12,4,,0.00,5,,222
2012-12-10,39,34,29,32,29,25,100,84,47,30.22,30.06,29.98,12,6,2,9,5,,0.00,6,Rain-Snow,236
2012-12-11,35,30,24,30,22,15,93,67,38,30.31,30.17,30.09,10,6,6,15,6,,0.00,4,,3
2012-12-12,28,22,17,21,18,14,93,74,54,30.32,30.18,30.06,19,7,6,8,3,,0.00,5,,3
2012-12-13,30,24,17,28,22,15,100,86,65,30.19,29.97,29.83,6,4,1,5,2,,0.04,6,Rain-Snow,265
2012-12-14,42,35,28,41,33,28,100,92,80,29.91,29.74,29.62,6,3,1,7,2,,0.08,7,Fog-Rain-Snow,239
2012-12-15,50,44,37,45,41,37,100,83,59,29.92,29.79,29.59,19,6,2,17,7,,0.12,6,Fog-Rain,227
2012-12-16,49,46,42,43,40,38,93,76,55,30.01,29.94,29.86,16,6,5,18,10,,0.04,6,Rain,226
2012-12-17,45,41,37,43,39,37,100,88,75,29.99,29.92,29.86,11,6,4,18,10,,0.20,6,Rain,214
2012-12-18,43,39,35,39,37,35,100,89,72,30.19,30.05,29.98,11,6,1,17,8,,0.16,6,Fog-Rain,211
2012-12-19,39,34,29,37,34,30,100,93,75,30.27,30.19,30.15,6,3,0,8,2,,0.00,5,Fog,275
2012-12-20,39,34,29,37,34,29,100,96,85,30.22,30.02,29.95,5,3,2,4,1,,0.35,6,Fog-Rain,8
2012-12-21,45,40,35,43,38,35,100,93,70,30.15,29.99,29.92,19,6,2,6,2,,0.02,6,Fog-Rain,29
2012-12-22,42,38,34,41,38,34,100,90,74,30.24,30.16,30.09,6,4,1,13,3,76,0.28,7,Fog-Rain,242
2012-12-23,55,46,37,48,43,37,100,89,65,30.20,30.14,30.09,19,7,6,12,5,,0.00,7,Fog-Rain,233
2012-12-24,52,40,29,45,39,31,100,85,54,30.17,29.99,29.89,12,4,0,17,5,,0.00,4,Fog,238
2012-12-25,55,48,42,46,42,40,93,70,54,29.98,29.88,29.83,19,6,3,17,11,,0.00,8,Rain,218
2012-12-26,50,44,38,47,38,31,95,71,37,30.26,30.12,29.98,8,6,5,13,6,,0.16,5,Rain,225
2012-12-27,51,44,37,45,38,32,93,76,40,30.25,30.11,29.95,16,6,4,22,11,36,0.47,6,Rain,237
2012-12-28,47,40,33,39,35,31,100,75,43,30.51,30.40,30.24,16,6,6,15,7,,0.00,6,Rain,230
2012-12-29,48,38,28,37,33,28,100,85,44,30.45,30.21,30.06,19,7,6,15,2,31,0.00,4,Fog,230
2012-12-30,48,40,32,39,35,30,93,70,45,30.43,30.29,30.15,16,6,6,15,9,,0.00,3,Rain,223
2012-12-31,46,37,28,34,30,26,100,81,42,30.43,30.19,29.95,6,6,6,7,2,,0.00,3,,243